Weather History for CYVR - October, 2013

Change the Weather History Date:

Wednesday, October 2, 2013

  Actual Average Record
Temperature  
Mean Temperature 48 °F -  
Max Temperature 50 °F 58 °F 64 °F (2004)
Min Temperature 46 °F 47 °F 44 °F (1999)
Degree Days  
Heating Degree Days 17    
Moisture  
Dew Point 46 °F    
Average Humidity 91    
Maximum Humidity 100    
Minimum Humidity 82    
Precipitation  
Precipitation 0.20 in - - ()
Sea Level Pressure  
Sea Level Pressure 30.10 in    
Wind  
Wind Speed 8 mph ()    
Max Wind Speed 16 mph    
Max Gust Speed -    
Visibility 12.1 miles    
Events Rain    
Averages and records for this station are not official NWS values.
T = Trace of Precipitation, MM = Missing Value Source: Averaged Metar Reports

Daily Weather History Graph

Daily Weather History Graph

Search for Another Location

Airport or City:

Trip Planner

Search our weather history database for the weather conditions in past years. The results will help you decide how hot, cold, wet, or windy it might be!

Date:

Astronomy

Oct. 02, 2013 Rise Set
Actual Time 7:14 AM PDT 6:48 PM PDT
Civil Twilight 6:42 AM PDT 7:20 PM PDT
Nautical Twilight 6:05 AM PDT 7:56 PM PDT
Astronomical Twilight 5:28 AM PDT 8:34 PM PDT
Moon 4:43 AM PDT (10/2) 5:34 PM PDT (10/2)
Length of Visible Light 12h 37m
Length of Day
11h 34m
Waning Crescent, 6% of the Moon is Illuminated
Oct 2
Waning Crescent
Oct 4
New
Oct 11
First Quarter
Oct 18
Full
Oct 26
Last Quarter

Hourly Weather History & Observations

Time (PDT) Temp. Windchill Dew Point Humidity Pressure Visibility Wind Dir Wind Speed Gust Speed Precip Events Conditions
12:00 AM 48.2 °F - 44.6 °F 87% 30.09 in 15.0 mi East 8.1 mph - N/A   Overcast
12:29 AM 48.2 °F - 44.6 °F 87% 30.09 in 15.0 mi East 8.1 mph - N/A   Overcast
1:00 AM 48.2 °F - 44.6 °F 87% 30.09 in 15.0 mi East 6.9 mph - N/A   Overcast
1:34 AM 48.2 °F - 44.6 °F 87% 30.09 in 12.0 mi East 9.2 mph - N/A Rain Light Rain
2:00 AM 48.2 °F - 44.6 °F 87% 30.09 in 12.0 mi East 9.2 mph - N/A Rain Light Rain
3:00 AM 46.4 °F 41.5 °F 44.6 °F 93% 30.09 in 12.0 mi East 10.4 mph - N/A Rain Light Rain
3:18 AM 46.4 °F 41.1 °F 46.4 °F 100% 30.09 in 12.0 mi East 11.5 mph - N/A   Overcast
3:30 AM 46.4 °F 41.5 °F 44.6 °F 93% 30.09 in 12.0 mi East 10.4 mph - N/A Rain Light Rain Showers
4:00 AM 46.4 °F 41.1 °F 46.4 °F 100% 30.08 in 10.0 mi East 11.5 mph - N/A Rain Light Rain Showers
4:57 AM 46.4 °F 41.1 °F 44.6 °F 93% 30.08 in 12.0 mi East 11.5 mph - N/A Rain Light Rain Showers
5:00 AM 47 °F - 46 °F 92% 30.08 in 12 mi East 11.5 mph - - Rain Light Rain Showers
5:00 AM 46.4 °F 41.5 °F 46.4 °F 100% 30.08 in 12.0 mi East 10.4 mph - N/A Rain Light Rain Showers
6:00 AM 46.4 °F 41.1 °F 46.4 °F 100% 30.07 in 8.0 mi East 11.5 mph - N/A Rain Light Rain
6:12 AM 46.4 °F 42.4 °F 46.4 °F 100% 30.07 in 8.0 mi East 8.1 mph - N/A Rain Light Rain
6:34 AM 46.4 °F 41.5 °F 46.4 °F 100% 30.07 in 8.0 mi East 10.4 mph - N/A Rain Light Rain
7:00 AM 48.2 °F - 46.4 °F 93% 30.07 in 8.0 mi East 10.4 mph - N/A Rain Light Rain
8:00 AM 48.2 °F - 46.4 °F 93% 30.08 in 8.0 mi East 13.8 mph - N/A Rain Light Rain
9:00 AM 48.2 °F - 46.4 °F 93% 30.08 in 10.0 mi East 11.5 mph - N/A Rain Light Rain
10:00 AM 48.2 °F - 46.4 °F 93% 30.08 in 10.0 mi East 16.1 mph - N/A Rain Light Rain
11:00 AM 48 °F - 46 °F 88% 30.09 in 7 mi East 10.4 mph - - Rain Light Rain
11:00 AM 48.2 °F - 46.4 °F 93% 30.09 in 8.0 mi East 10.4 mph - N/A Rain Light Rain
11:55 AM 48.2 °F - 44.6 °F 87% 30.09 in 6.0 mi ENE 5.8 mph - N/A Rain Light Rain
12:00 PM 48.2 °F - 44.6 °F 87% 30.09 in 6.0 mi ENE 8.1 mph - N/A Rain Light Rain
12:10 PM 48.2 °F - 44.6 °F 87% 30.09 in 8.0 mi East 5.8 mph - N/A Rain Light Rain
1:00 PM 48.2 °F - 46.4 °F 93% 30.09 in 7.0 mi NE 9.2 mph - N/A Rain Light Rain
1:47 PM 48.2 °F - 44.6 °F 87% 30.08 in 5.0 mi ENE 12.7 mph - N/A Rain Light Rain
2:00 PM 48.2 °F - 46.4 °F 93% 30.08 in 4.0 mi ENE 9.2 mph - N/A Rain Light Rain
2:24 PM 48.2 °F - 46.4 °F 93% 30.09 in 8.0 mi East 8.1 mph - N/A Rain Light Rain
3:00 PM 48.2 °F - 46.4 °F 93% 30.09 in 8.0 mi ENE 9.2 mph - N/A Rain Light Rain
4:00 PM 48.2 °F - 46.4 °F 93% 30.09 in 12.0 mi ENE 9.2 mph - N/A Rain Light Rain
4:33 PM 50.0 °F - 46.4 °F 87% 30.10 in 15.0 mi ENE 6.9 mph - N/A   Overcast
4:37 PM 50.0 °F - 46.4 °F 87% 30.10 in 15.0 mi ENE 9.2 mph - N/A Rain Light Rain
5:00 PM 50 °F - 46 °F 82% 30.11 in 15 mi ENE 9.2 mph - - Rain Light Rain
5:00 PM 50.0 °F - 46.4 °F 87% 30.11 in 15.0 mi ENE 8.1 mph - N/A Rain Light Rain
5:40 PM 50.0 °F - 46.4 °F 87% 30.11 in 20.0 mi NE 6.9 mph - N/A   Overcast
6:00 PM 50.0 °F - 46.4 °F 87% 30.11 in 20.0 mi NE 5.8 mph - N/A   Overcast
7:00 PM 50.0 °F - 46.4 °F 87% 30.12 in 20.0 mi NNE 4.6 mph - N/A   Overcast
8:00 PM 48.2 °F - 46.4 °F 93% 30.14 in 20.0 mi NNW 4.6 mph - N/A   Overcast
9:00 PM 48.2 °F - 46.4 °F 93% 30.16 in 20.0 mi North 3.5 mph - N/A   Mostly Cloudy
10:00 PM 48.2 °F - 44.6 °F 87% 30.17 in 20.0 mi NNE 4.6 mph - N/A   Mostly Cloudy
11:00 PM 46 °F - 45 °F 94% 30.19 in 19 mi North 3.5 mph - -   Partly Cloudy
11:00 PM 46.4 °F 44.3 °F 44.6 °F 93% 30.19 in 20.0 mi NNW 4.6 mph - N/A   Scattered Clouds